Weather History for Baltimore Martin, MD

Change the Weather History Date:

Monday, February 17, 2014

  Actual Average Record
Temperature  
Mean Temperature 32 °F -  
Max Temperature 46 °F 42 °F 62 °F (2006)
Min Temperature 19 °F 28 °F 19 °F (2007)
Degree Days  
Heating Degree Days 32    
Moisture  
Dew Point 16 °F    
Average Humidity 62    
Maximum Humidity 80    
Minimum Humidity 22    
Precipitation  
Precipitation 0.00 in - - ()
Sea Level Pressure  
Sea Level Pressure 30.34 in    
Wind  
Wind Speed 6 mph (NW)    
Max Wind Speed 10 mph    
Max Gust Speed 17 mph    
Visibility 10 miles    
Events      
Averages and records for this station are not official NWS values.
T = Trace of Precipitation, MM = Missing Value Source: NWS Daily Summary

Daily Weather History Graph

Daily Weather History Graph

Search for Another Location

Airport:

Trip Planner

Search our weather history database for the weather conditions in past years. The results will help you decide how hot, cold, wet, or windy it might be!

Date:

Astronomy

Feb. 17, 2014 Rise Set
Actual Time 6:54 AM EST 5:44 PM EST
Civil Twilight 6:27 AM EST 6:12 PM EST
Nautical Twilight 5:56 AM EST 6:43 PM EST
Astronomical Twilight 5:25 AM EST 7:14 PM EST
Moon 8:36 PM EST (2/17) 7:55 AM EST (2/17)
Length of Visible Light 11h 44m
Length of Day
10h 49m
Waning Gibbous, 93% of the Moon is Illuminated
Feb 17
Waning Gibbous
Feb 22
Last Quarter
Mar 1
New
Mar 8
First Quarter
Mar 16
Full

Hourly Weather History & Observations

Time (EST) Temp. Windchill Dew Point Humidity Pressure Visibility Wind Dir Wind Speed Gust Speed Precip Events Conditions
12:09 AM 28.4 °F 22.2 °F 21.2 °F 74% 30.23 in 10.0 mi West 5.8 mph - N/A   Scattered Clouds
12:30 AM 26.6 °F 22.6 °F 19.4 °F 74% 30.24 in 10.0 mi West 3.5 mph - N/A   Clear
12:48 AM 26.6 °F 20.0 °F 19.4 °F 74% 30.25 in 10.0 mi West 5.8 mph - N/A   Clear
1:09 AM 26.6 °F 18.2 °F 19.4 °F 74% 30.25 in 10.0 mi West 8.1 mph - N/A   Clear
1:30 AM 26.6 °F 20.0 °F 19.4 °F 74% 30.26 in 10.0 mi WNW 5.8 mph - N/A   Clear
1:48 AM 26.6 °F 21.2 °F 21.2 °F 80% 30.27 in 10.0 mi WNW 4.6 mph - N/A   Mostly Cloudy
2:09 AM 26.6 °F 22.6 °F 19.4 °F 74% 30.28 in 10.0 mi West 3.5 mph - N/A   Scattered Clouds
2:30 AM 24.8 °F 20.5 °F 19.4 °F 80% 30.29 in 10.0 mi NW 3.5 mph - N/A   Scattered Clouds
2:48 AM 23.0 °F 18.4 °F 17.6 °F 80% 30.30 in 10.0 mi WNW 3.5 mph - N/A   Clear
3:09 AM 24.8 °F 17.9 °F 19.4 °F 80% 30.30 in 10.0 mi NW 5.8 mph - N/A   Scattered Clouds
3:30 AM 26.6 °F 19.1 °F 19.4 °F 74% 30.31 in 10.0 mi NW 6.9 mph - N/A   Scattered Clouds
3:51 AM 26.6 °F 18.2 °F 19.4 °F 74% 30.32 in 10.0 mi NW 8.1 mph - N/A   Clear
4:09 AM 26.6 °F 18.2 °F 19.4 °F 74% 30.33 in 10.0 mi WNW 8.1 mph - N/A   Clear
4:30 AM 23.0 °F 15.8 °F 17.6 °F 80% 30.34 in 10.0 mi NW 5.8 mph - N/A   Clear
4:51 AM 23.0 °F 14.7 °F 15.8 °F 74% 30.35 in 10.0 mi WNW 6.9 mph - N/A   Clear
5:09 AM 24.8 °F 16.1 °F 14.0 °F 64% 30.36 in 10.0 mi NW 8.1 mph - N/A   Clear
5:27 AM 23.0 °F 13.9 °F 12.2 °F 63% 30.37 in 10.0 mi NW 8.1 mph - N/A   Clear
5:45 AM 23.0 °F 13.1 °F 12.2 °F 63% 30.38 in 10.0 mi WNW 9.2 mph - N/A   Partly Cloudy
6:45 AM 19.4 °F 9.5 °F 10.4 °F 68% 30.41 in 10.0 mi WNW 8.1 mph - N/A   Partly Cloudy
7:45 AM 21.2 °F 12.6 °F 12.2 °F 68% 30.46 in 10.0 mi West 6.9 mph - N/A   Partly Cloudy
8:45 AM 24.8 °F 14.6 °F 10.4 °F 54% 30.48 in 10.0 mi WNW 10.4 mph 17.3 mph N/A   Partly Cloudy
9:45 AM 28.4 °F 22.2 °F 8.6 °F 43% 30.49 in 10.0 mi NW 5.8 mph - N/A   Partly Cloudy
10:45 AM 30.2 °F 23.4 °F 6.8 °F 37% 30.48 in 10.0 mi NW 6.9 mph - N/A   Partly Cloudy
12:45 PM 39.2 °F - 8.6 °F 28% 30.44 in 10.0 mi Calm Calm - N/A   Partly Cloudy
1:45 PM 46.4 °F - 8.6 °F 22% 30.42 in 10.0 mi Calm Calm - N/A   Partly Cloudy
2:45 PM 42.8 °F - 8.6 °F 25% 30.41 in 10.0 mi Calm Calm - N/A   Partly Cloudy
3:45 PM 35.6 °F - 15.8 °F 44% 30.40 in 10.0 mi Calm Calm - N/A   Partly Cloudy
4:40 PM 33.8 °F 27.7 °F 15.8 °F 48% 30.38 in 10.0 mi ESE 6.9 mph - N/A   Partly Cloudy
4:45 PM 33.8 °F 26.4 °F 14.0 °F 44% 30.38 in 10.0 mi ESE 9.2 mph - N/A   Partly Cloudy
5:50 PM 28.4 °F 23.3 °F 12.2 °F 51% 30.38 in 10.0 mi ESE 4.6 mph - N/A   Partly Cloudy
6:45 PM 28.4 °F 24.6 °F 14.0 °F 55% 30.38 in 10.0 mi East 3.5 mph - N/A   Partly Cloudy
7:50 PM 26.6 °F 21.2 °F 12.2 °F 55% 30.36 in 10.0 mi ESE 4.6 mph - N/A   Partly Cloudy
8:50 PM 28.4 °F 22.2 °F 15.8 °F 59% 30.35 in 10.0 mi East 5.8 mph - N/A   Partly Cloudy
9:50 PM 28.4 °F 22.2 °F 15.8 °F 59% 30.35 in 10.0 mi East 5.8 mph - N/A   Partly Cloudy
10:12 PM 30.2 °F 21.9 °F 17.6 °F 60% 30.32 in 10.0 mi East 9.2 mph - N/A   Scattered Clouds
10:33 PM 30.2 °F 23.4 °F 19.4 °F 64% 30.31 in 10.0 mi ESE 6.9 mph - N/A   Scattered Clouds
10:51 PM 30.2 °F 21.9 °F 19.4 °F 64% 30.30 in 10.0 mi ESE 9.2 mph - N/A   Clear
11:12 PM 30.2 °F 21.9 °F 21.2 °F 69% 30.27 in 10.0 mi ESE 9.2 mph - N/A   Clear
11:33 PM 32.0 °F 23.6 °F 23.0 °F 69% 30.31 in 10.0 mi SE 10.4 mph - N/A   Clear
11:51 PM 32.0 °F 24.2 °F 23.0 °F 69% 30.28 in 10.0 mi East 9.2 mph - N/A   Clear